AirNav   Get $300 off a Bose A20
 
 1326 users online  

N30 Cherry Ridge Airport
Honesdale, Pennsylvania, USA

GOING TO HONESDALE?


FAA INFORMATION EFFECTIVE 25 APRIL 2019

Location

FAA Identifier: N30
Lat/Long: 41-30-56.1300N / 075-15-05.6150W
41-30.935500N / 075-15.093583W
41.5155917 / -75.2515597
(estimated)
Elevation: 1357 ft. / 414 m (estimated)
Variation: 13W (2005)
From city: 3 miles S of HONESDALE, PA
Time zone: UTC -4 (UTC -5 during Standard Time)
Zip code: 18431

Airport Operations

Airport use: Open to the public
Activation date: 03/1965
Control tower: no
ARTCC: NEW YORK CENTER
FSS: WILLIAMSPORT FLIGHT SERVICE STATION
NOTAMs facility: IPT (NOTAM-D service available)
Attendance: 0900-1700
Wind indicator: lighted
Segmented circle: no
Lights: SS-SR
Beacon: white-green (lighted land airport)
Operates sunset to sunrise.

Airport Communications

CTAF/UNICOM: 122.8
WILKES-BARRE APPROACH: 120.95
WILKES-BARRE DEPARTURE: 120.95

Nearby radio navigation aids

VOR radial/distance  VOR name  Freq  Var
LVZr064/24.5WILKES-BARRE VORTAC111.6010W
HUOr293/30.3HUGUENOT VOR/DME116.1011W
HNKr186/33.0HANCOCK VOR/DME116.8011W
STWr342/35.6STILLWATER VOR/DME109.6011W

Airport Services

Fuel available: 100LL
Parking: hangars and tiedowns
Airframe service: MAJOR
Powerplant service: MAJOR
Bottled oxygen: NONE
Bulk oxygen: NONE

Runway Information

Runway 18/36

Dimensions: 2986 x 50 ft. / 910 x 15 m
Surface: asphalt, in fair condition
Weight bearing capacity: 
Single wheel: 10.0
Runway edge lights: non-standard
RUNWAY 18  RUNWAY 36
Latitude: 41-31.175000N41-30.696000N
Longitude: 075-15.167500W075-15.019667W
Elevation: 1346.0 ft.1329.0 ft.
Traffic pattern: leftleft
Runway heading: 180 magnetic, 167 true000 magnetic, 347 true
Displaced threshold: 519 ft.589 ft.
Markings: basic, in good conditionbasic, in good condition
Touchdown point: yes, no lightsyes, no lights
Obstructions: 68 ft. tree, 1060 ft. from runway, 149 ft. left of centerline, 12:1 slope to clear
RWY 18 HAS 10FT TREES/BRUSH, 52 FT OUT, 50 FT LEFT/RIGHT OF CNTLN.
37 ft. trees, 263 ft. from runway, 101 ft. left of centerline, 1:1 slope to clear
APCH RATIO 23:1 TO DTHR.

Airport Ownership and Management from official FAA records

Ownership: Privately-owned
Owner: EARLYNN AVIATION
30 BOMBER LANE
HONESDALE, PA 18431
Phone 570-253-5833
Manager: VINCENT VAN LAAK
30 BOMBER LANE
HONESDALE, PA 18431
Phone 570-253-5833

Airport Operational Statistics

Aircraft based on the field: 61
Single engine airplanes: 52
Multi engine airplanes: 3
Helicopters: 1
Ultralights: 5
    
Aircraft operations: avg 63/day *
65% local general aviation
35% transient general aviation
<1% military
* for 12-month period ending 18 October 2018

Additional Remarks

A30A-36 CLSD NIGHT OPS.
FOR CD CTC WILKES-BARRE APCH AT 570-655-2084.

Instrument Procedures

NOTE: All procedures below are presented as PDF files. If you need a reader for these files, you should download the free Adobe Reader.

NOT FOR NAVIGATION. Please procure official charts for flight.
FAA instrument procedures published for use from 25 April 2019 at 0901Z to 23 May 2019 at 0900Z.

 
IAPs - Instrument Approach Procedures
RNAV (GPS)-B **CHANGED**   download (131KB)
VOR/DME-A **CHANGED**   download (168KB)
NOTE: Special Take-Off Minimums/Departure Procedures apply   download (149KB)

Other nearby airports with instrument procedures:

70N - Spring Hill Airport (13 nm SW)
9N3 - Seamans Field Airport (23 nm W)
KMSV - Sullivan County International Airport (23 nm NE)
KMPO - Pocono Mountains Municipal Airport (23 nm S)
KAVP - Wilkes-Barre/Scranton International Airport (24 nm SW)
 
Loc | Ops | Rwys | IFR | FBO | Links
Com | Nav | Svcs | Stats | Notes
Area around N30 (Cherry Ridge Airport)
 
Road maps at: MapQuest Bing Google
 
Aerial photo
WARNING: Photo may not be current or correct
Aerial photo of N30 (Cherry Ridge Airport)
Photo by Mark Bischoff
Photo taken 30-Aug-2014
looking south.

Do you have a better or more recent aerial photo of Cherry Ridge Airport that you would like to share? If so, please send us your photo.

 
Sectional chart

 
Airport distance calculator
Flying to Cherry Ridge Airport? Find the distance to fly.

From to N30

Sunrise and sunset
Times for 20-May-2019
 Local
(UTC-4)
 Zulu
(UTC)
Morning civil twilight05:0609:06
Sunrise05:3809:38
Sunset20:1700:17
Evening civil twilight20:4900:49

Current date and time
Zulu (UTC)  20-May-2019 13:47:54
Local (UTC-4)  20-May-2019 09:47:54
 
METAR
KMPO 
24nm S 
201328Z AUTO 24011KT 10SM SCT023 BKN028 21/17 A2987 RMK AO2 T02060167
KMSV 
24nm NE 
201332Z AUTO 26009G17KT 10SM BKN016 20/17 A2985 RMK AO2 CIG 009V022
KAVP 
24nm SW 
201254Z 24006KT 10SM CLR 22/18 A2984 RMK AO2 SLP096 T02220178
KFWN 
34nm SE 
201253Z AUTO VRB05KT 10SM FEW010 22/20 A2984 RMK AO2 RAB14E23 SLP101 P0000 T02220200
K12N 
38nm SE 
201254Z AUTO 20003KT 21/19 A2985 RMK AO1 SLP103 T02060189
KMGJ 
44nm E 
SuperAWOS
201341Z AUTO 21009KT 10SM FEW013 FEW019 23/19 A2980 RMK AO2 T02280194 TSNO
KHZL 
46nm SW 
201336Z AUTO 21008KT 170V240 10SM BKN027 23/16 A2990 RMK AO2 PNO
TAF
KAVP 
24nm SW 
201134Z 2012/2112 25008KT P6SM BKN040 FM201500 25015G25KT P6SM BKN050 TEMPO 2017/2019 -TSRA OVC035CB FM210600 30015G25KT P6SM OVC100
NOTAMs
Click for the latest NOTAMs
NOTAMs are issued by the DoD/FAA and will open in a separate window not controlled by AirNav.

 

 
 

FBO, Fuel Providers, and Aircraft Ground Support

  
 Business Name 
 
 Contact 
 
 Services / Description 
 
Fuel Prices
 
Comments
  
Earlynn Aviation Inc 570-253-5833
no information available

If you are affiliated with Earlynn Aviation Inc and would like to show here your services, contact info, web link, logo, and more, click here
100LL
SS $4.98 
 Updated 09-May-2019
 
   write
SS=Self service
Update Fuel Prices
 

Where to Eat: Catering, Restaurants, Food shops

  
 Business Name 
 
 Contact 
 
 Services / Description 
 
Distance
 
Comments
  
Cherry Ridge Restaurant 570-253-5517
[web site]
[email]
Restaurant

More info about Cherry Ridge Restaurant
on airport  
   3 read write
 

Would you like to see your business listed on this page?

 If your business provides an interesting product or service to pilots, flight crews, aircraft, or users of the Cherry Ridge Airport, you should consider listing it here.  To start the listing process, click on the button below
 
Add a business
 

Other Pages about Cherry Ridge Airport

Update a link
 
Copyright © AirNav, LLC. All rights reserved. Privacy Policy  Contact